Location: ??
(31.9467°N, 34.8903°E)
Time: 17:58:17
(UTC+00:00)

S3M - Pass Details

Date: 29 October 2020
Orbit: 950 x 1003 km, 83.0° (Epoch: 30 November)

Event Time Altitude Azimuth Distance (km) Brightness Sun altitude
Rises 15:24:24 0° 164° (SSE) 3,606 6.9 -7.3°
Reaches altitude 10° 15:27:01 10° 157° (SSE) 2,665 6.2 -7.8°
Maximum altitude 15:32:39 41° 90° (E) 1,360 4.3 -9.0°
Drops below altitude 10° 15:38:19 10° 22° (NNE) 2,693 6.0 -10.2°
Sets 15:40:58 0° 16° (NNE) 3,649 6.7 -10.7°
